Location: ??
(34.7252°N, 135.5457°E)
Time: 09:41:41
(UTC+00:00)

SJ-6F - Pass Details

Date: 24 September 2020
Orbit: 570 x 595 km, 97.8° (Epoch: 23 October)

Event Time Altitude Azimuth Distance (km) Brightness Sun altitude
Rises 19:19:41 0° 11° (N) 2,791 8.2 -18.8°
Reaches altitude 10° 19:21:50 10° 11° (N) 1,886 7.3 -18.4°
Maximum altitude 19:25:56 87° 284° (WNW) 577 4.3 -17.6°
Drops below altitude 10° 19:29:58 10° 194° (SSW) 1,865 6.8 -16.8°
Enters shadow 19:30:43 - 194° (SSW) 2,176 7.1 -16.6°
